RYR284X EGSS-LIMJ

Flight info

Callsign RYR284X
Flight time N/A
Altitude 37000
Route NUGBO M183 SILVA Q41 COWLY L612 MID UL612 OGULO DCT OKASI DCT OKEKO DCT MOU DCT MADIV DCT MOKIP DCT TUFTA DCT GEVEA DCT MOBLO DCT LURAG DCT OBUXA DCT TOP M730 TESTO
Aircraft B738/M-SDE2E3FGHIRWXY/LB1

Departure

Time N/A
Airport London Stansted Airport (EGSS)

Arrival

Time 2026-04-24 11:23
Airport Genoa Cristoforo Colombo Airport (LIMJ)
Time Latitude Longitude Altitude Speed Heading
2026-04-24 11:08 44.58201 8.70225 17261 ft 349 kts 117°
2026-04-24 11:09 44.56994 8.73154 16887 ft 344 kts 117°
2026-04-24 11:09 44.55799 8.76052 16536 ft 341 kts 117°
2026-04-24 11:09 44.54616 8.78921 16186 ft 339 kts 117°
2026-04-24 11:09 44.53427 8.81773 15819 ft 338 kts 120°
2026-04-24 11:10 44.51925 8.84317 15487 ft 340 kts 134°
2026-04-24 11:10 44.50094 8.86348 15356 ft 333 kts 142°
2026-04-24 11:10 44.48186 8.88164 14998 ft 332 kts 143°
2026-04-24 11:10 44.46265 8.89963 14587 ft 333 kts 143°
2026-04-24 11:11 44.44339 8.91766 14227 ft 332 kts 142°
2026-04-24 11:11 44.42431 8.93563 14010 ft 325 kts 142°
2026-04-24 11:11 44.40579 8.95296 13949 ft 315 kts 146°
2026-04-24 11:11 44.38573 8.96559 13518 ft 319 kts 156°
2026-04-24 11:12 44.36499 8.97575 13090 ft 320 kts 158°
2026-04-24 11:12 44.34381 8.98573 12651 ft 321 kts 158°
2026-04-24 11:12 44.32263 8.99566 12228 ft 322 kts 158°
2026-04-24 11:12 44.30131 9.00547 11800 ft 323 kts 162°
2026-04-24 11:13 44.27889 9.00858 11422 ft 326 kts 180°
2026-04-24 11:13 44.25641 9.00591 11037 ft 322 kts 190°
2026-04-24 11:13 44.23580 8.99437 10670 ft 318 kts 209°
2026-04-24 11:13 44.21884 8.97520 10291 ft 313 kts 232°
2026-04-24 11:14 44.20901 8.94876 9917 ft 305 kts 256°
2026-04-24 11:14 44.20568 8.92051 9710 ft 291 kts 275°
2026-04-24 11:14 44.21045 8.89419 9643 ft 274 kts 294°
2026-04-24 11:14 44.21734 8.86977 9474 ft 268 kts 295°
2026-04-24 11:15 44.22407 8.84597 9276 ft 264 kts 294°
2026-04-24 11:15 44.23072 8.82182 8888 ft 267 kts 293°
2026-04-24 11:15 44.23722 8.79747 8540 ft 269 kts 292°
2026-04-24 11:15 44.24361 8.77296 8218 ft 267 kts 292°
2026-04-24 11:16 44.24980 8.74886 7884 ft 261 kts 291°
2026-04-24 11:16 44.25580 8.72522 7514 ft 255 kts 291°
2026-04-24 11:16 44.26163 8.70216 7151 ft 249 kts 291°
2026-04-24 11:16 44.26731 8.67961 6777 ft 244 kts 291°
2026-04-24 11:17 44.27288 8.65745 6395 ft 240 kts 291°
2026-04-24 11:17 44.27834 8.63570 6009 ft 235 kts 291°
2026-04-24 11:17 44.28486 8.61515 5597 ft 230 kts 308°
2026-04-24 11:17 44.29722 8.60196 5220 ft 223 kts 340°
2026-04-24 11:18 44.31238 8.59909 4849 ft 220 kts
2026-04-24 11:18 44.32614 8.60282 4507 ft 218 kts 13°
2026-04-24 11:18 44.34066 8.60837 4125 ft 214 kts 18°
2026-04-24 11:18 44.35298 8.61947 3722 ft 211 kts 46°
2026-04-24 11:19 44.36124 8.63610 3345 ft 208 kts 58°
2026-04-24 11:19 44.36827 8.65326 2980 ft 202 kts 60°
2026-04-24 11:19 44.37505 8.66994 2689 ft 190 kts 59°
2026-04-24 11:19 44.38124 8.68529 2497 ft 169 kts 60°
2026-04-24 11:20 44.38660 8.69856 2518 ft 150 kts 59°
2026-04-24 11:20 44.39179 8.71122 2372 ft 152 kts 59°
2026-04-24 11:20 44.39706 8.72402 2115 ft 150 kts 59°
2026-04-24 11:20 44.40210 8.73660 1890 ft 147 kts 60°
2026-04-24 11:21 44.40736 8.74918 1560 ft 151 kts 59°
2026-04-24 11:21 44.41283 8.76172 1224 ft 149 kts 62°
2026-04-24 11:21 44.41683 8.77473 977 ft 145 kts 73°
2026-04-24 11:21 44.41909 8.78846 748 ft 146 kts 84°
2026-04-24 11:22 44.41947 8.80270 424 ft 146 kts 96°
2026-04-24 11:22 44.41720 8.81620 194 ft 141 kts 108°
2026-04-24 11:22 44.41448 8.82935 30 ft 140 kts 105°
2026-04-24 11:22 44.41199 8.84183 21 ft 113 kts 105°
2026-04-24 11:23 44.41040 8.84995 18 ft 41 kts 105°
2026-04-24 11:23 44.41052 8.85183 17 ft 10 kts 53°
2026-04-24 11:23 44.41107 8.85238 19 ft 10 kts 24°
2026-04-24 11:23 44.41140 8.85249 20 ft 4 kts 12°
2026-04-24 11:24 44.41165 8.85257 20 ft 4 kts 12°
2026-04-24 11:24 44.41189 8.85264 20 ft 4 kts 12°
2026-04-24 11:24 44.41212 8.85271 20 ft 3 kts 12°
2026-04-24 11:24 44.41233 8.85277 20 ft 3 kts 12°
2026-04-24 11:25 44.41267 8.85271 20 ft 9 kts 334°
2026-04-24 11:25 44.41307 8.85207 20 ft 9 kts 289°
2026-04-24 11:25 44.41323 8.85127 20 ft 8 kts 286°
2026-04-24 11:25 44.41338 8.85053 19 ft 0 kts 283°
2026-04-24 11:26 44.41341 8.85016 19 ft 5 kts 259°
2026-04-24 11:26 44.41312 8.85005 19 ft 5 kts 151°
2026-04-24 11:27 44.41310 8.85059 19 ft 7 kts 79°
2026-04-24 11:27 44.41354 8.85091 20 ft 8 kts
2026-04-24 11:27 44.41403 8.85104 19 ft 5 kts 15°
2026-04-24 11:27 44.41404 8.85105 19 ft 0 kts 15°